Regional Weather Roundup
Issued by NWS

Home | Current Version | Previous Version | Text Only | Print | Product List | Glossary Off
Versions: 1 2 3 4 5 6 7 8 9 10 11 12 13 14 15 16 17 18 19 20 21 22 23 24 25 26 27 28 29 30 31 32 33 34 35 36 37 38 39 40 41 42 43 44 45 46 47 48 49 50

000
ASUS43 KMKX 282200
RWRWI

WISCONSIN REGIONAL WEATHER ROUNDUP
NATIONAL WEATHER SERVICE MILWAUKEE/SULLIVAN WI
500 PM CDT THU APR 28 2016

NOTE: "FAIR" INDICATES FEW OR NO CLOUDS BELOW 12,000 FEET WITH NO
SIGNIFICANT WEATHER AND/OR OBSTRUCTIONS TO VISIBILITY.

WIZ001-002-006>008-014>016-023>028-282300-
NORTHWEST WISCONSIN

CITY           SKY/WX    TMP DP  RH WIND       PRES   REMARKS
SUPERIOR ARPT  CLOUDY    40  32  72 NE13      30.12S WCI  33
ASHLAND        MOSUNNY   44  29  55 NE17G24   30.12R
HAYWARD        CLOUDY    46  29  51 NE13      30.06R
SIREN          CLOUDY    52  25  34 E6        30.03R
CUMBERLAND     CLOUDY    50  30  46 NE5       30.01S
RICE LAKE      CLOUDY    50  33  52 S12       30.03R
CHETEK         CLOUDY    46  33  61 S7        30.03R
LADYSMITH      CLOUDY    53  22  30 E7        30.03S
EAU CLAIRE     NOT AVBL
MENOMONIE      CLOUDY    42  42  99 E8        30.04R
NEW RICHMOND   LGT RAIN  42  34  73 S8        30.03S
OSCEOLA        LGT RAIN  46  35  65 S3        30.06S
$$

WIZ003>005-009-010-017-018-282300-
NORTH CENTRAL WISCONSIN

CITY           SKY/WX    TMP DP  RH WIND       PRES   REMARKS
MANITOWISH WTR CLOUDY    53  21  28 E5        30.01S
ARBOR VITAE    MOSUNNY   57  20  24 E7        30.00F
WOODRUFF       MOSUNNY   57  20  24 E7        30.00F
RHINELANDER    CLOUDY    55  22  27 SE9       30.00F
EAGLE RIVER    MOSUNNY   56  20  24 SE5       30.00S
LAND O LAKES   MOSUNNY   55  21  26 E5        30.02S
PHILLIPS       CLOUDY    56  24  28 NE8       29.99S
TOMAHAWK       CLOUDY    54  20  27 E6        30.01S
MEDFORD        CLOUDY    41  34  76 S8        30.01S
MERRILL        CLOUDY    50  27  40 S7        30.01S
$$

WIZ029-030-035-036-043>047-282300-
CENTRAL WISCONSIN

CITY           SKY/WX    TMP DP  RH WIND       PRES   REMARKS
WAUSAU         LGT RAIN  43  34  70 VRB3      30.01F
MOSINEE        LGT RAIN  39  36  87 NE7       30.03F WCI  34
MARSHFIELD     LGT RAIN  39  34  82 E12       30.02R WCI  32
STEVENS POINT  CLOUDY    38  35  87 E6        30.02S WCI  34
WAUPACA        CLOUDY    44  33  63 NE5       30.02S
WAUTOMA        LGT RAIN  40  35  83 NE8       30.02  WCI  34
WISC RAPIDS    LGT RAIN  40  35  83 E6        30.03R
CAMP DOUGLAS   CLOUDY    41  41 100 E12       29.99S
$$

WIZ011>013-019>022-031-037>040-048>050-282300-
NORTHEAST WISCONSIN

CITY           SKY/WX    TMP DP  RH WIND       PRES   REMARKS
ANTIGO         CLOUDY    47  25  42 SE6       30.02R
SHAWANO        CLOUDY    44  33  65 NE10G16   30.05R
OCONTO         CLOUDY    44  31  59 NE7       30.05S
STURGEON BAY   CLOUDY    43  28  56 NE8       30.07S
GREEN BAY      CLOUDY    45  31  58 E14       30.03S
MANITOWOC      NOT AVBL
APPLETON       CLOUDY    45  28  53 NE13G20   29.99F
CLINTONVILLE   CLOUDY    45  32  61 NE9       30.02F
OSHKOSH        CLOUDY    45  29  53 NE10      30.00R
$$

WIZ032>034-041-042-053>061-282300-
SOUTHWEST WISCONSIN

CITY           SKY/WX    TMP DP  RH WIND       PRES   REMARKS
LA CROSSE      CLOUDY    43  38  82 E7        30.00R
SPARTA         CLOUDY    41  40  96 E8        30.00R FOG
VIROQUA        CLOUDY    40  39  99 E12       29.97R WCI  32
BOSCOBEL       CLOUDY    45  38  76 E9        29.97S
PRAIRIE DU CHI CLOUDY    45  38  76 E8        29.96S
PLATTEVILLE    CLOUDY    44  42  91 NE9       29.95R
$$

WIZ056-057-062-063-064-067-068-282300-
SOUTH CENTRAL WISCONSIN

CITY           SKY/WX    TMP DP  RH WIND       PRES   REMARKS
REEDSBURG      CLOUDY    39  38  97 E9        29.98R FOG     WCI  33
BARABOO/DELLS  CLOUDY    39  37  93 E12       29.98R FOG     WCI  32
LONE ROCK      LGT RAIN  42  39  89 NE13      29.98S
MINERAL POINT  CLOUDY    45  39  81 NE10      29.94S
MADISON        DRIZZLE   40  37  89 E9        29.98R FOG     WCI  34
MIDDLETON      CLOUDY    42  38  87 E13       29.97S
WATERTOWN      CLOUDY    39  38  94 E12G21    29.96F WCI  32
MONROE         CLOUDY    45  39  81 NE13      29.93R
JANESVILLE     CLOUDY    45  39  81 E15       29.95R
$$

WIZ051-052-058>065-066-070>072-282300-
SOUTHEAST WISCONSIN

CITY           SKY/WX    TMP DP  RH WIND       PRES   REMARKS
MILWAUKEE      CLOUDY    41  37  86 NE12G24   29.99R
WAUKESHA       CLOUDY    37  36  93 E13G21    29.99R FOG     WCI  29
MILWAUKEE/TIMM CLOUDY    39  34  81 E12       30.00R WCI  32
RACINE         CLOUDY    40  37  89 E14       29.99R FOG     WCI  32
BURLINGTON     CLOUDY    38  37  96 NE12G17   29.96S FOG     WCI  31
KENOSHA        CLOUDY    40  38  93 NE12      29.97S FOG     WCI  33
FOND DU LAC    CLOUDY    43  30  60 E9        30.01R
SHEBOYGAN      CLOUDY    39  35  86 E16       30.01R WCI  30
WEST BEND      CLOUDY    39  34  81 E14       29.99R WCI  31
JUNEAU         CLOUDY    39  36  89 E13G18    30.00R WCI  31
$$

LSZ147-162-282300-
LAKE SUPERIOR

STATION/POSITION TIME  TEMP    WIND        PRES    WAVE
                       AIR SEA DIR/SP/G            HT/PER
                 (UTC) (F)     (DEG/KT/KT) (MB)    (FT/S)
W MID LAKE BUOY  2050   37 36   60/ 14/ 17 1020.9F   4/ 5
DEVILS ISLAND    2100   38      70/ 17/ 19 1020.8R
SAXON HARBOR     2100   38      30/ 12/ 15 1019.3S
$$

LMZ867-665-643>646-282300-
LAKE MICHIGAN

STATION/POSITION TIME  TEMP    WIND        PRES    WAVE
                       AIR SEA DIR/SP/G            HT/PER
                 (UTC) (F)     (DEG/KT/KT) (MB)    (FT/S)
CHAMBERS ISLAND  2140   42      30/  9/ 11 1017.9S
N MID LAKE BUOY  2050   40 38   50/ 12/ 14 1018.0F   2/ 3
NORTHPORT PIER   2100   41      60/  9/ 12 1017.9F
ALGOMA LAKESHORE 2100           70/ 16/ 19   N/A
KEWAUNEE LAKESHO 2100   42      30/  7/ 11 1016.5F
SHEBOYGAN LAKESH 2100   40      30/ 14/ 15 1016.9F
PORT WASHINGTON  2100   42      60/ 15/ 19 1016.3F
S MID LAKE BUOY  2050   40 40   60/ 16/ 17 1013.9F   3/ 4
KENOSHA   LAKESH 2100   40      50/ 16/ 19 1014.6R
$$

TC  - TEMPERATURE IN CELSIUS
VSB - VISIBILITY IN STATUTE MILES
WCI - WIND CHILL INDEX
HX  - HEAT INDEX





USA.gov is the U.S. government's official web portal to all federal, state and local government web resources and services.